Flag for U.S.A. Weather past 2 weeks in Jacksonville, North Carolina, U.S.A.

Now
89 °F

Passing clouds.


Feels Like: 99 °F
Forecast: 74 / 91 °F
Wind: 6 mph from Southwest

Location: Jacksonville - New River

Current Time: Aug 21, 2014 at 6:27:48 PM

Latest Report: Aug 21, 2014 at 5:56 PM


Visibility: 10 mi

Pressure: 30.00 "Hg

Humidity: 63%

Dew point: 75 °F

Location of JacksonvilleLocation

Historic Weather in Jacksonville — Graph

°F

Jacksonville temperature yesterday

Maximum temperature yesterday: 88 °F (at 1:56 PM)
Minimum temperature yesterday: 72 °F (at 5:56 AM)
Average temperature yesterday: 79 °F

Past Weeks' High & Low Weather Summary

 TemperatureHumidityPressure
High93 °F (Aug 21, 2:56 PM)100% (Aug 12, 8:02 AM)30.10 "Hg (Aug 12, 8:02 AM)
Low64 °F (Aug 15, 5:56 AM)40% (Aug 14, 5:56 PM)29.78 "Hg (Aug 19, 3:56 AM)
Average78 °F78%29.97 "Hg
* Reported Aug 6 4:56 PM — Aug 21 4:56 PM, Jacksonville, Weather by CustomWeather, © 2014

Note: Actual official high and low records may vary slightly from our data, if they occured in-between our weather recording intervals... More about our weather records

Advertising

Jacksonville weather history for previous 24 hours

 ConditionsComfort  
Time TempWeatherWind HumidityBarometerVisibility
4:56 PM
Aug 21
90 °FScattered clouds.9 mph61%30.01 "Hg10 mi
3:56 PM92 °FPassing clouds.8 mph52%30.01 "Hg10 mi
2:56 PM93 °FBroken clouds.8 mph54%30.02 "Hg10 mi
1:56 PM91 °FScattered clouds.6 mph56%30.03 "Hg10 mi
12:56 PM91 °FBroken clouds.8 mph57%30.03 "Hg10 mi
11:56 AM89 °FPartly sunny.3 mph63%30.05 "Hg10 mi
10:56 AM88 °FSunny.No wind65%30.06 "Hg10 mi
9:56 AM85 °FSunny.5 mph75%30.05 "Hg10 mi
8:56 AM80 °FFog.3 mph96%30.06 "Hg5 mi
7:56 AM78 °FFog.No wind96%30.05 "Hg1 mi
7:03 AM74 °FFog.No wind97%30.03 "Hg3 mi
6:56 AM74 °FFog.No wind97%30.03 "Hg2 mi
5:56 AM75 °FFog.No wind96%30.01 "Hg6 mi
4:56 AM75 °FFog.3 mph96%29.98 "Hg6 mi
3:56 AM75 °FFog.5 mph96%29.99 "Hg4 mi
2:56 AM74 °FFog.No wind97%30.01 "Hg3 mi
1:56 AM75 °FFog.No wind96%30.01 "Hg4 mi
12:56 AM76 °FFog.No wind94%30.03 "Hg4 mi
11:56 PM
Aug 20
75 °FFog.No wind96%30.03 "Hg5 mi
10:56 PM77 °FClear.No wind94%30.04 "Hg8 mi
9:56 PM77 °FClear.3 mph94%30.01 "Hg10 mi
8:56 PM78 °FClear.3 mph90%29.98 "Hg10 mi
7:56 PM81 °FSunny.No wind85%29.98 "Hg10 mi
6:56 PM83 °FSunny.6 mph77%29.97 "Hg10 mi
Weather by CustomWeather, © 2014

See weather overviewHow to use our weather pages